Regional Weather Roundup
Issued by NWS

Home | Current Version | Previous Version | Graphics & Text | Print | Product List | Glossary On
Versions: 1 2 3 4 5 6 7 8 9 10 11 12 13 14 15 16 17 18 19 20 21 22 23 24 25 26 27 28 29 30 31 32 33 34 35 36 37 38 39 40 41 42 43 44 45 46 47 48 49 50
125
ASUS45 KCYS 132010
RWRWY

WYOMING REGIONAL WEATHER ROUNDUP
NATIONAL WEATHER SERVICE CHEYENNE WY
100 PM MST WED DEC 13 2017

NOTE:  "FAIR" INDICATES FEW OR NO CLOUDS BELOW 12,000 FEET
WITH NO SIGNIFICANT WEATHER AND/OR OBSTRUCTIONS TO VISIBILITY.

WYZ001-132100-
YELLOWSTONE NATIONAL PARK

CITY           SKY/WX    TMP DP  RH WIND       PRES   REMARKS
LK YELLOWSTONE   N/A     22  20  92 CALM      30.21F
W YELLOWSTONE  NOT AVBL

$$
WYZ002>013-054>058-071-098>099-132100-
NORTHERN WYOMING

CITY           SKY/WX    TMP DP  RH WIND       PRES   REMARKS
JACKSON        LGT SNOW  27  21  80 N3        30.24F FOG
CODY           FAIR      41  17  38 CALM      30.17F
GREYBULL       CLOUDY    36  18  48 N5        30.17S WCI  32
WORLAND        CLOUDY    41  16  36 CALM      30.14F
SHERIDAN       FAIR      43  18  36 NW18      30.12S
BUFFALO        FAIR      46  12  25 N20       30.10S
GILLETTE       FAIR      43  17  35 NW15      30.08F
HULETT         FAIR      37  23  56 NW7       30.08S WCI  32
NEWCASTLE      FAIR      37  18  44 NW22G29   30.06F WCI  27

$$
WYZ014>020-022>026-101>103-132100-
CENTRAL WYOMING

CITY           SKY/WX    TMP DP  RH WIND       PRES   REMARKS
BIG PINEY      CLOUDY    36   2  23 CALM      30.13F
PINEDALE       CLOUDY    37  16  41 NW23G30   30.14F WCI  26
DUBOIS         LGT SNOW  30  27  86 NW12      30.15F WCI  21
LANDER         CLOUDY    39  21  48 N7        30.11S WCI  34
RIVERTON       CLOUDY    39  21  48 NW5       30.13S
CASPER         FAIR      44  17  33 W9        30.08F
DOUGLAS        FAIR      47  18  31 W13       30.07F

$$
WYZ021-027>030-104>119-132100-
SOUTHERN WYOMING

CITY           SKY/WX    TMP DP  RH WIND       PRES   REMARKS
EVANSTON       CLOUDY    39   8  27 SW13      30.17F WCI  31
FORT BRIDGER   CLOUDY    44  -2  14 W17G24    30.17F
ROCK SPRINGS   CLOUDY    43  -2  15 W15       30.10F
DIXON          CLOUDY    38  21  51 CALM      30.15F
RAWLINS        CLOUDY    42  13  30 W8        30.10F
SARATOGA       CLOUDY    41  10  28 NW3       30.10F
LARAMIE        FAIR      43   9  24 N13       30.06F
CHEYENNE       FAIR      46  10  23 N16G25    30.04F
TORRINGTON     FAIR      50  15  24 NW14G26   30.04F
PINE BLUFFS    FAIR      46  12  25 NW21G32   30.05F

$$




USA.gov is the U.S. government's official web portal to all federal, state and local government web resources and services.